Station Historical Data
Daily Summary for April 5, 2017 Units:  Metric    English   Both
« Previous Day
Next Day »
Daily Weekly Monthly Yearly Custom
  High: Low: Average:
Temperature: 11.9 °C 4.2 °C 7.2 °C
Dew Point: 5.5 °C 1.9 °C 3.2 °C
Humidity: 88% 63% 76%
Wind Speed: 22.5km/h 0km/h 8.4km/h
Wind Gust: 33.8km/h - -
Wind- - SSE
Pressure: 1016.1 hPa 1004.6 hPa -
Precipitation: 0 mm    
Historical Graphs
 
 
Tabular Data for April 5, 2017
Time Temperature Dew Point Pressure Wind Wind Speed Wind Gust Humidity Rainfall Rate (Hourly)
00:04 4.7 °C 2.7 °C 1007.7 hPa West 17.7 km/h 25.7 km/h 87% 0 mm
00:09 4.6 °C 2.8 °C 1007.7 hPa WSW 12.9 km/h 25.7 km/h 88% 0 mm
00:14 4.6 °C 2.8 °C 1008 hPa WSW 12.9 km/h 27.4 km/h 88% 0 mm
00:19 4.6 °C 2.8 °C 1008 hPa WSW 14.5 km/h 27.4 km/h 88% 0 mm
00:24 4.6 °C 2.8 °C 1008 hPa WSW 9.7 km/h 24.1 km/h 88% 0 mm
00:29 4.6 °C 2.7 °C 1008 hPa WSW 16.1 km/h 30.6 km/h 88% 0 mm
00:34 4.6 °C 2.7 °C 1008 hPa SW 11.3 km/h 22.5 km/h 88% 0 mm
00:39 4.5 °C 2.7 °C 1008.4 hPa WSW 12.9 km/h 22.5 km/h 88% 0 mm
00:44 4.5 °C 2.7 °C 1008.4 hPa WSW 12.9 km/h 22.5 km/h 88% 0 mm
00:49 4.4 °C 2.6 °C 1008.7 hPa WSW 11.3 km/h 22.5 km/h 88% 0 mm
00:54 4.5 °C 2.7 °C 1008.7 hPa WSW 11.3 km/h 22.5 km/h 88% 0 mm
00:59 4.6 °C 2.6 °C 1008.7 hPa WSW 11.3 km/h 22.5 km/h 87% 0 mm
01:04 4.6 °C 2.4 °C 1009 hPa WSW 9.7 km/h 17.7 km/h 86% 0 mm
01:09 4.7 °C 2.6 °C 1009 hPa West 9.7 km/h 14.5 km/h 86% 0 mm
01:14 4.7 °C 2.4 °C 1009 hPa WSW 8 km/h 17.7 km/h 85% 0 mm
01:19 4.8 °C 2.4 °C 1009.4 hPa WSW 12.9 km/h 16.1 km/h 85% 0 mm
01:24 4.9 °C 2.2 °C 1009.4 hPa West 6.4 km/h 19.3 km/h 83% 0 mm
01:29 5 °C 2.2 °C 1009.4 hPa West 11.3 km/h 16.1 km/h 82% 0 mm
01:34 5.1 °C 2.1 °C 1009.7 hPa West 22.5 km/h 25.7 km/h 81% 0 mm
01:39 5.2 °C 2 °C 1009.7 hPa WSW 11.3 km/h 25.7 km/h 80% 0 mm
01:44 5.2 °C 2.1 °C 1009.7 hPa West 11.3 km/h 25.7 km/h 80% 0 mm
01:49 5.3 °C 1.9 °C 1009.7 hPa West 11.3 km/h 25.7 km/h 79% 0 mm
01:54 5.3 °C 1.9 °C 1009.7 hPa West 11.3 km/h 25.7 km/h 79% 0 mm
01:59 5.3 °C 1.9 °C 1009.7 hPa West 11.3 km/h 24.1 km/h 79% 0 mm
02:04 5.3 °C 2.1 °C 1009.7 hPa West 9.7 km/h 19.3 km/h 80% 0 mm
02:09 5.3 °C 2.1 °C 1009.7 hPa West 9.7 km/h 29 km/h 80% 0 mm
02:14 5.3 °C 2.1 °C 1009.7 hPa West 11.3 km/h 29 km/h 80% 0 mm
02:19 5.2 °C 2.1 °C 1009.7 hPa SW 8 km/h 17.7 km/h 80% 0 mm
02:24 5.2 °C 2.1 °C 1009.7 hPa WSW 6.4 km/h 24.1 km/h 80% 0 mm
02:29 5.2 °C 2.2 °C 1010 hPa West 8 km/h 16.1 km/h 81% 0 mm
02:34 5.2 °C 2.2 °C 1009.7 hPa WSW 8 km/h 17.7 km/h 81% 0 mm
02:39 5.2 °C 2.2 °C 1009.7 hPa WSW 9.7 km/h 14.5 km/h 81% 0 mm
02:44 5.1 °C 2.2 °C 1010 hPa West 11.3 km/h 19.3 km/h 82% 0 mm
02:49 5 °C 2.2 °C 1010 hPa West 9.7 km/h 19.3 km/h 82% 0 mm
02:54 4.9 °C 2.3 °C 1010 hPa West 8 km/h 17.7 km/h 83% 0 mm
02:59 4.8 °C 2.2 °C 1010 hPa West 9.7 km/h 19.3 km/h 83% 0 mm
03:04 4.8 °C 2.1 °C 1010 hPa West 8 km/h 19.3 km/h 83% 0 mm
03:09 4.8 °C 2.3 °C 1010 hPa West 8 km/h 16.1 km/h 84% 0 mm
03:19 4.8 °C 2.3 °C 1010 hPa WNW 9.7 km/h 17.7 km/h 84% 0 mm
03:24 4.8 °C 2.3 °C 1010.4 hPa West 8 km/h 22.5 km/h 84% 0 mm
03:29 4.8 °C 2.2 °C 1010.4 hPa West 8 km/h 22.5 km/h 83% 0 mm
03:34 4.8 °C 2.2 °C 1010.7 hPa WNW 4.8 km/h 16.1 km/h 83% 0 mm
03:39 4.8 °C 2.2 °C 1010.7 hPa WSW 6.4 km/h 14.5 km/h 83% 0 mm
03:44 4.9 °C 2.2 °C 1011.1 hPa West 11.3 km/h 22.5 km/h 83% 0 mm
03:49 4.9 °C 2.2 °C 1011.1 hPa West 12.9 km/h 16.1 km/h 83% 0 mm
03:54 4.9 °C 2.2 °C 1011.4 hPa West 9.7 km/h 19.3 km/h 83% 0 mm
03:59 4.8 °C 2 °C 1011.7 hPa West 8 km/h 19.3 km/h 82% 0 mm
04:04 4.9 °C 2.1 °C 1011.7 hPa West 8 km/h 17.7 km/h 82% 0 mm
04:09 4.9 °C 2.1 °C 1011.7 hPa West 8 km/h 20.9 km/h 82% 0 mm
04:14 4.9 °C 2.1 °C 1012.1 hPa West 8 km/h 20.9 km/h 82% 0 mm
04:19 4.9 °C 1.9 °C 1011.7 hPa West 12.9 km/h 16.1 km/h 81% 0 mm
04:24 4.9 °C 1.9 °C 1011.7 hPa WNW 6.4 km/h 17.7 km/h 81% 0 mm
04:29 4.9 °C 1.9 °C 1012.1 hPa West 8 km/h 17.7 km/h 81% 0 mm
04:34 4.9 °C 1.9 °C 1012.1 hPa West 16.1 km/h 24.1 km/h 81% 0 mm
04:39 4.9 °C 1.9 °C 1012.4 hPa WNW 8 km/h 16.1 km/h 81% 0 mm
04:44 4.9 °C 1.9 °C 1012.4 hPa West 4.8 km/h 14.5 km/h 81% 0 mm
04:49 4.9 °C 1.9 °C 1012.4 hPa West 12.9 km/h 12.9 km/h 81% 0 mm
04:54 4.9 °C 1.9 °C 1012.8 hPa WSW 12.9 km/h 16.1 km/h 81% 0 mm
04:59 4.9 °C 1.9 °C 1012.8 hPa West 8 km/h 17.7 km/h 81% 0 mm
05:04 4.9 °C 1.9 °C 1012.8 hPa West 8 km/h 17.7 km/h 81% 0 mm
05:09 4.9 °C 1.9 °C 1013.1 hPa West 8 km/h 17.7 km/h 81% 0 mm
05:14 4.9 °C 1.9 °C 1013.1 hPa West 8 km/h 12.9 km/h 81% 0 mm
05:19 4.9 °C 1.9 °C 1013.1 hPa West 6.4 km/h 14.5 km/h 81% 0 mm
05:24 4.9 °C 1.9 °C 1013.1 hPa SW 12.9 km/h 12.9 km/h 81% 0 mm
05:29 5 °C 2 °C 1013.1 hPa WSW 6.4 km/h 12.9 km/h 81% 0 mm
05:34 5 °C 2 °C 1013.1 hPa WSW 4.8 km/h 12.9 km/h 81% 0 mm
05:39 5 °C 2.2 °C 1013.4 hPa WSW 6.4 km/h 11.3 km/h 82% 0 mm
05:44 4.8 °C 2 °C 1013.4 hPa SW 8 km/h 11.3 km/h 82% 0 mm
05:49 4.6 °C 1.9 °C 1013.4 hPa WSW 4.8 km/h 12.9 km/h 83% 0 mm
05:54 4.4 °C 2.1 °C 1013.4 hPa SW 6.4 km/h 17.7 km/h 85% 0 mm
05:59 4.3 °C 2 °C 1013.8 hPa WSW 4.8 km/h 16.1 km/h 85% 0 mm
06:04 4.3 °C 2.2 °C 1013.8 hPa WSW 3.2 km/h 11.3 km/h 86% 0 mm
06:09 4.2 °C 2.1 °C 1013.8 hPa WSW 4.8 km/h 11.3 km/h 86% 0 mm
06:14 4.3 °C 2.2 °C 1013.8 hPa WSW 4.8 km/h 9.7 km/h 86% 0 mm
06:19 4.3 °C 2.3 °C 1013.8 hPa WSW 4.8 km/h 9.7 km/h 87% 0 mm
06:24 4.3 °C 2.3 °C 1014.1 hPa SW 6.4 km/h 11.3 km/h 87% 0 mm
06:29 4.3 °C 2.3 °C 1013.8 hPa WSW 6.4 km/h 11.3 km/h 87% 0 mm
06:34 4.3 °C 2.3 °C 1014.1 hPa SW 3.2 km/h 11.3 km/h 87% 0 mm
06:39 4.3 °C 2.3 °C 1014.1 hPa WSW 6.4 km/h 11.3 km/h 87% 0 mm
06:44 4.3 °C 2.3 °C 1014.4 hPa South 8 km/h 11.3 km/h 87% 0 mm
06:49 4.3 °C 2.3 °C 1014.4 hPa WSW 4.8 km/h 12.9 km/h 87% 0 mm
06:54 4.3 °C 2.3 °C 1014.4 hPa SW 4.8 km/h 12.9 km/h 87% 0 mm
06:59 4.3 °C 2.3 °C 1014.4 hPa WSW 6.4 km/h 8 km/h 87% 0 mm
07:04 4.4 °C 2.4 °C 1014.8 hPa SW 4.8 km/h 9.7 km/h 87% 0 mm
07:09 4.4 °C 2.4 °C 1014.8 hPa WSW 4.8 km/h 11.3 km/h 87% 0 mm
07:14 4.4 °C 2.4 °C 1014.8 hPa WSW 6.4 km/h 11.3 km/h 87% 0 mm
07:19 4.5 °C 2.3 °C 1015.1 hPa WSW 4.8 km/h 11.3 km/h 86% 0 mm
07:24 4.6 °C 2.4 °C 1015.1 hPa WSW 6.4 km/h 12.9 km/h 86% 0 mm
07:29 4.6 °C 2.4 °C 1015.1 hPa WSW 6.4 km/h 12.9 km/h 86% 0 mm
07:34 4.6 °C 2.4 °C 1015.1 hPa WSW 4.8 km/h 9.7 km/h 86% 0 mm
07:39 4.7 °C 2.5 °C 1015.1 hPa West 3.2 km/h 9.7 km/h 86% 0 mm
07:44 4.8 °C 2.6 °C 1015.1 hPa West 4.8 km/h 9.7 km/h 86% 0 mm
07:49 4.8 °C 2.7 °C 1015.1 hPa West 4.8 km/h 6.4 km/h 86% 0 mm
07:54 4.9 °C 2.6 °C 1015.1 hPa WNW 1.6 km/h 8 km/h 85% 0 mm
07:59 5 °C 2.7 °C 1015.1 hPa NW 3.2 km/h 4.8 km/h 85% 0 mm
08:04 5 °C 2.7 °C 1015.1 hPa WNW 6.4 km/h 6.4 km/h 85% 0 mm
08:09 5.1 °C 2.7 °C 1015.1 hPa NW 3.2 km/h 4.8 km/h 85% 0 mm
08:14 5.2 °C 2.7 °C 1015.1 hPa NNW 1.6 km/h 4.8 km/h 84% 0 mm
08:19 5.2 °C 2.6 °C 1015.1 hPa NW 3.2 km/h 9.7 km/h 83% 0 mm
08:24 5.3 °C 2.5 °C 1015.1 hPa WNW 4.8 km/h 9.7 km/h 82% 0 mm
08:29 5.5 °C 2.5 °C 1015.5 hPa WNW 4.8 km/h 12.9 km/h 81% 0 mm
08:34 5.6 °C 2.4 °C 1015.1 hPa WNW 4.8 km/h 12.9 km/h 80% 0 mm
08:39 5.6 °C 2.4 °C 1015.1 hPa NW 4.8 km/h 11.3 km/h 80% 0 mm
08:44 5.7 °C 2.5 °C 1015.1 hPa West 3.2 km/h 9.7 km/h 80% 0 mm
08:49 5.7 °C 2.4 °C 1015.1 hPa WNW 3.2 km/h 9.7 km/h 79% 0 mm
08:54 5.7 °C 2.4 °C 1015.1 hPa NW 4.8 km/h 9.7 km/h 79% 0 mm
08:59 5.7 °C 2.1 °C 1015.1 hPa North 6.4 km/h 9.7 km/h 78% 0 mm
09:04 5.7 °C 2.1 °C 1015.1 hPa NNW 4.8 km/h 11.3 km/h 78% 0 mm
09:09 5.8 °C 2.4 °C 1015.1 hPa NNW 4.8 km/h 8 km/h 79% 0 mm
09:14 5.9 °C 2.5 °C 1015.1 hPa WNW 1.6 km/h 8 km/h 79% 0 mm
09:19 6 °C 2.4 °C 1015.1 hPa NNW 4.8 km/h 11.3 km/h 78% 0 mm
09:24 5.8 °C 2.3 °C 1015.1 hPa NNW 4.8 km/h 14.5 km/h 78% 0 mm
09:29 5.8 °C 2.3 °C 1015.5 hPa NNW 4.8 km/h 14.5 km/h 78% 0 mm
09:34 5.8 °C 2.2 °C 1015.5 hPa NW 4.8 km/h 9.7 km/h 78% 0 mm
09:39 5.9 °C 2.3 °C 1014.8 hPa NNW 6.4 km/h 11.3 km/h 78% 0 mm
09:49 5.8 °C 2.3 °C 1015.5 hPa NNW 8 km/h 12.9 km/h 78% 0 mm
09:54 5.9 °C 2.6 °C 1015.5 hPa North 6.4 km/h 12.9 km/h 79% 0 mm
09:59 6.1 °C 2.7 °C 1015.5 hPa WNW 4.8 km/h 8 km/h 79% 0 mm
10:04 6.1 °C 2.6 °C 1015.5 hPa NW 4.8 km/h 9.7 km/h 78% 0 mm
10:09 6.2 °C 2.4 °C 1015.1 hPa NNW 6.4 km/h 11.3 km/h 77% 0 mm
10:14 6.1 °C 2.5 °C 1015.5 hPa NNW 4.8 km/h 11.3 km/h 78% 0 mm
10:19 6 °C 2.4 °C 1015.1 hPa Calm   6.4 km/h 78% 0 mm
10:24 6 °C 2.3 °C 1015.1 hPa North 4.8 km/h 9.7 km/h 77% 0 mm
10:29 5.9 °C 2.2 °C 1015.1 hPa North 4.8 km/h 11.3 km/h 77% 0 mm
10:34 6 °C 2.3 °C 1015.5 hPa NNW 4.8 km/h 11.3 km/h 77% 0 mm
10:39 6.1 °C 2.3 °C 1015.5 hPa NNW 3.2 km/h 8 km/h 77% 0 mm
10:44 6.3 °C 2.6 °C 1015.5 hPa North 4.8 km/h 9.7 km/h 77% 0 mm
10:49 6.3 °C 2.3 °C 1015.5 hPa NE 3.2 km/h 11.3 km/h 76% 0 mm
10:54 6.3 °C 2.6 °C 1015.5 hPa North 3.2 km/h 8 km/h 77% 0 mm
10:59 6.5 °C 2.4 °C 1015.5 hPa NNE 3.2 km/h 8 km/h 75% 0 mm
11:04 6.6 °C 2.6 °C 1015.5 hPa NNE 3.2 km/h 6.4 km/h 76% 0 mm
11:09 6.8 °C 2.4 °C 1015.5 hPa NNW 3.2 km/h 8 km/h 74% 0 mm
11:14 6.8 °C 2.4 °C 1015.8 hPa Calm   8 km/h 74% 0 mm
11:19 6.6 °C 2.5 °C 1015.8 hPa Calm   8 km/h 75% 0 mm
11:24 6.7 °C 2.6 °C 1015.8 hPa NNW 1.6 km/h 4.8 km/h 75% 0 mm
11:29 6.8 °C 2.4 °C 1016.1 hPa Calm   3.2 km/h 74% 0 mm
11:34 6.9 °C 2.6 °C 1016.1 hPa WSW 1.6 km/h 6.4 km/h 74% 0 mm
11:39 7.1 °C 2.7 °C 1016.1 hPa WSW 3.2 km/h 8 km/h 74% 0 mm
11:44 6.9 °C 2.4 °C 1015.8 hPa WSW 3.2 km/h 8 km/h 73% 0 mm
11:49 7.2 °C 3.1 °C 1015.8 hPa South 3.2 km/h 4.8 km/h 75% 0 mm
11:54 7.3 °C 2.9 °C 1015.8 hPa South 1.6 km/h 4.8 km/h 74% 0 mm
11:59 7.6 °C 3.1 °C 1015.8 hPa SSE 3.2 km/h 4.8 km/h 73% 0 mm
12:04 7.8 °C 3.4 °C 1015.5 hPa SSE 1.6 km/h 4.8 km/h 74% 0 mm
12:09 8.1 °C 3.1 °C 1015.5 hPa SSW 3.2 km/h 9.7 km/h 71% 0 mm
12:14 8.2 °C 3.2 °C 1015.5 hPa WSW 3.2 km/h 9.7 km/h 71% 0 mm
12:19 8.7 °C 3.9 °C 1015.5 hPa SW 3.2 km/h 8 km/h 72% 0 mm
12:24 8.3 °C 3.2 °C 1015.5 hPa South 3.2 km/h 8 km/h 70% 0 mm
12:29 8.5 °C 3.7 °C 1015.1 hPa South 3.2 km/h 8 km/h 72% 0 mm
12:34 9.2 °C 4.2 °C 1015.1 hPa SSE 3.2 km/h 6.4 km/h 71% 0 mm
12:39 8.7 °C 3.6 °C 1015.1 hPa WNW 4.8 km/h 6.4 km/h 70% 0 mm
12:44 8.6 °C 3.2 °C 1015.1 hPa SSW 4.8 km/h 6.4 km/h 69% 0 mm
12:49 8.9 °C 3.8 °C 1015.1 hPa Calm   6.4 km/h 70% 0 mm
12:54 9.2 °C 3.8 °C 1015.1 hPa NNE 6.4 km/h 6.4 km/h 69% 0 mm
12:59 9.1 °C 3.7 °C 1014.8 hPa SSE 4.8 km/h 8 km/h 69% 0 mm
13:04 9 °C 3.4 °C 1015.1 hPa Calm   8 km/h 68% 0 mm
13:09 9.1 °C 3.7 °C 1015.1 hPa Calm   8 km/h 69% 0 mm
13:14 9.3 °C 3.7 °C 1014.8 hPa ESE 3.2 km/h 8 km/h 68% 0 mm
13:19 9.9 °C 4.1 °C 1014.8 hPa ESE 4.8 km/h 6.4 km/h 67% 0 mm
13:24 9.4 °C 4 °C 1014.4 hPa ESE 1.6 km/h 6.4 km/h 69% 0 mm
13:29 10 °C 4.3 °C 1014.4 hPa ESE 1.6 km/h 6.4 km/h 68% 0 mm
13:34 10 °C 4.2 °C 1014.4 hPa ENE 3.2 km/h 11.3 km/h 67% 0 mm
13:39 10.1 °C 4.1 °C 1014.4 hPa ESE 1.6 km/h 12.9 km/h 66% 0 mm
13:44 10.2 °C 4.3 °C 1014.4 hPa ESE 4.8 km/h 12.9 km/h 67% 0 mm
13:49 10.3 °C 4.8 °C 1014.4 hPa ENE 3.2 km/h 12.9 km/h 69% 0 mm
13:54 10.3 °C 4.7 °C 1014.4 hPa East 9.7 km/h 9.7 km/h 68% 0 mm
13:59 10.1 °C 3.8 °C 1014.4 hPa Calm   9.7 km/h 65% 0 mm
14:04 10.8 °C 5.4 °C 1014.4 hPa SW 4.8 km/h 6.4 km/h 69% 0 mm
14:09 10.5 °C 4.2 °C 1014.4 hPa NE 3.2 km/h 8 km/h 65% 0 mm
14:14 10.8 °C 4.4 °C 1014.1 hPa East 3.2 km/h 11.3 km/h 65% 0 mm
14:19 10.2 °C 3.9 °C 1014.1 hPa NE 4.8 km/h 11.3 km/h 65% 0 mm
14:24 10.9 °C 5.2 °C 1013.8 hPa NE 3.2 km/h 8 km/h 68% 0 mm
14:29 11.2 °C 4.9 °C 1013.8 hPa NE 4.8 km/h 16.1 km/h 65% 0 mm
14:34 10.8 °C 4.5 °C 1013.4 hPa ENE 6.4 km/h 16.1 km/h 65% 0 mm
14:39 10.4 °C 3.9 °C 1013.1 hPa NNE 8 km/h 12.9 km/h 64% 0 mm
14:44 11.2 °C 5.5 °C 1013.4 hPa NE 3.2 km/h 12.9 km/h 68% 0 mm
14:49 11.2 °C 4.6 °C 1013.4 hPa NNE 6.4 km/h 12.9 km/h 64% 0 mm
14:54 11.3 °C 5 °C 1013.1 hPa NNE 6.4 km/h 16.1 km/h 65% 0 mm
14:59 11.2 °C 4.7 °C 1013.1 hPa NE 6.4 km/h 16.1 km/h 64% 0 mm
15:04 10.9 °C 4.4 °C 1012.8 hPa ENE 8 km/h 17.7 km/h 64% 0 mm
15:09 10.7 °C 4.3 °C 1012.4 hPa North 4.8 km/h 11.3 km/h 65% 0 mm
15:14 10.9 °C 4.8 °C 1012.8 hPa East 9.7 km/h 16.1 km/h 66% 0 mm
15:19 10.9 °C 4.3 °C 1012.4 hPa ENE 3.2 km/h 16.1 km/h 64% 0 mm
15:24 10.9 °C 4.6 °C 1012.8 hPa ENE 6.4 km/h 16.1 km/h 65% 0 mm
15:29 11.1 °C 4.7 °C 1012.8 hPa ENE 4.8 km/h 12.9 km/h 65% 0 mm
15:34 11 °C 4.4 °C 1012.4 hPa NE 3.2 km/h 14.5 km/h 64% 0 mm
15:39 10.9 °C 4.6 °C 1012.4 hPa NE 6.4 km/h 12.9 km/h 65% 0 mm
15:44 11.2 °C 5.1 °C 1012.4 hPa NNE 8 km/h 17.7 km/h 66% 0 mm
15:49 11.7 °C 5.1 °C 1012.1 hPa NE 8 km/h 19.3 km/h 64% 0 mm
15:54 11.4 °C 5.1 °C 1012.1 hPa NE 9.7 km/h 20.9 km/h 65% 0 mm
15:59 11.9 °C 5.1 °C 1011.7 hPa NE 9.7 km/h 20.9 km/h 63% 0 mm
16:04 11.4 °C 4.9 °C 1011.7 hPa NE 8 km/h 19.3 km/h 64% 0 mm
16:09 11.2 °C 5.1 °C 1011.4 hPa NE 8 km/h 22.5 km/h 66% 0 mm
16:14 11.6 °C 5 °C 1011.4 hPa NE 9.7 km/h 22.5 km/h 64% 0 mm
16:19 11.6 °C 5.4 °C 1011.1 hPa ENE 12.9 km/h 16.1 km/h 66% 0 mm
16:24 11.8 °C 5 °C 1011.1 hPa NE 12.9 km/h 20.9 km/h 63% 0 mm
16:29 11.3 °C 5 °C 1011.1 hPa NE 9.7 km/h 20.9 km/h 65% 0 mm
16:34 11.9 °C 5.5 °C 1011.1 hPa NE 11.3 km/h 22.5 km/h 65% 0 mm
16:39 11.9 °C 5.3 °C 1011.1 hPa NNE 4.8 km/h 17.7 km/h 64% 0 mm
16:44 11.7 °C 5.1 °C 1010.7 hPa NNE 6.4 km/h 19.3 km/h 64% 0 mm
16:49 11.4 °C 5.1 °C 1010.7 hPa NNE 6.4 km/h 22.5 km/h 65% 0 mm
16:54 11.8 °C 5.4 °C 1010.4 hPa ENE 6.4 km/h 16.1 km/h 65% 0 mm
16:59 11.7 °C 5.3 °C 1010.4 hPa NE 9.7 km/h 20.9 km/h 65% 0 mm
17:04 11.4 °C 5.5 °C 1010.4 hPa NE 11.3 km/h 22.5 km/h 67% 0 mm
17:09 11.7 °C 5.5 °C 1010 hPa NE 11.3 km/h 22.5 km/h 66% 0 mm
17:14 11.8 °C 5.4 °C 1010 hPa NE 12.9 km/h 29 km/h 65% 0 mm
17:19 11.4 °C 5.3 °C 1010 hPa NE 12.9 km/h 29 km/h 66% 0 mm
17:24 11.6 °C 5.4 °C 1009.7 hPa ENE 17.7 km/h 22.5 km/h 66% 0 mm
17:29 11.3 °C 5.2 °C 1009.7 hPa NE 12.9 km/h 22.5 km/h 66% 0 mm
17:34 11.2 °C 5.1 °C 1009.7 hPa NE 6.4 km/h 27.4 km/h 66% 0 mm
17:39 11.2 °C 5.3 °C 1009.7 hPa East 17.7 km/h 22.5 km/h 67% 0 mm
17:44 11.2 °C 5.3 °C 1009.7 hPa NNE 12.9 km/h 24.1 km/h 67% 0 mm
17:49 11.3 °C 5.4 °C 1009.7 hPa NE 16.1 km/h 25.7 km/h 67% 0 mm
17:54 11.2 °C 5.1 °C 1010 hPa East 14.5 km/h 24.1 km/h 66% 0 mm
17:59 10.8 °C 5.2 °C 1009.7 hPa NE 16.1 km/h 27.4 km/h 68% 0 mm
18:04 10.8 °C 5.1 °C 1009.7 hPa NE 11.3 km/h 27.4 km/h 68% 0 mm
18:09 10.8 °C 5.1 °C 1009.7 hPa NE 9.7 km/h 25.7 km/h 68% 0 mm
18:14 10.8 °C 5.1 °C 1009.7 hPa NE 9.7 km/h 22.5 km/h 68% 0 mm
18:19 10.4 °C 5 °C 1010 hPa NE 9.7 km/h 25.7 km/h 69% 0 mm
18:24 10.3 °C 4.9 °C 1010 hPa NE 11.3 km/h 25.7 km/h 69% 0 mm
18:29 10.4 °C 5.2 °C 1010 hPa NE 9.7 km/h 22.5 km/h 70% 0 mm
18:34 10.3 °C 4.8 °C 1010 hPa ENE 14.5 km/h 22.5 km/h 69% 0 mm
18:39 10.1 °C 4.9 °C 1010 hPa NNE 9.7 km/h 17.7 km/h 70% 0 mm
18:44 10.1 °C 4.8 °C 1010 hPa NE 8 km/h 19.3 km/h 70% 0 mm
18:49 10.1 °C 4.8 °C 1009.7 hPa NE 12.9 km/h 22.5 km/h 70% 0 mm
18:54 9.9 °C 4.7 °C 1009.7 hPa NNE 9.7 km/h 24.1 km/h 70% 0 mm
18:59 9.8 °C 4.6 °C 1009.7 hPa ENE 11.3 km/h 24.1 km/h 70% 0 mm
19:04 9.7 °C 4.4 °C 1009.4 hPa ENE 14.5 km/h 29 km/h 70% 0 mm
19:09 9.6 °C 4.3 °C 1009.4 hPa NE 16.1 km/h 30.6 km/h 70% 0 mm
19:14 9.4 °C 4.4 °C 1009 hPa NE 14.5 km/h 30.6 km/h 71% 0 mm
19:19 9.4 °C 4.4 °C 1009 hPa NE 14.5 km/h 29 km/h 71% 0 mm
19:24 9.3 °C 4.3 °C 1009 hPa NE 16.1 km/h 29 km/h 71% 0 mm
19:29 9.3 °C 4.3 °C 1009 hPa NE 14.5 km/h 27.4 km/h 71% 0 mm
19:34 9.3 °C 4.3 °C 1008.7 hPa ENE 14.5 km/h 27.4 km/h 71% 0 mm
19:39 9.2 °C 4.2 °C 1008.7 hPa ENE 14.5 km/h 25.7 km/h 71% 0 mm
19:44 9.1 °C 4.1 °C 1008.4 hPa NE 14.5 km/h 30.6 km/h 71% 0 mm
19:49 8.8 °C 4 °C 1008.4 hPa NE 11.3 km/h 27.4 km/h 72% 0 mm
19:54 8.4 °C 3.7 °C 1008 hPa NE 16.1 km/h 25.7 km/h 72% 0 mm
19:59 8.3 °C 3.7 °C 1007.7 hPa NE 9.7 km/h 30.6 km/h 73% 0 mm
20:04 8.2 °C 3.6 °C 1007.7 hPa NNE 11.3 km/h 25.7 km/h 73% 0 mm
20:09 8.1 °C 3.5 °C 1007.7 hPa NE 14.5 km/h 32.2 km/h 73% 0 mm
20:14 7.9 °C 3.6 °C 1008 hPa NE 16.1 km/h 32.2 km/h 74% 0 mm
20:19 7.8 °C 3.4 °C 1007.7 hPa NE 16.1 km/h 29 km/h 74% 0 mm
20:24 7.6 °C 3.3 °C 1007.7 hPa NE 17.7 km/h 33.8 km/h 74% 0 mm
20:29 7.4 °C 3.1 °C 1008 hPa NE 19.3 km/h 33.8 km/h 74% 0 mm
20:34 7.3 °C 3.1 °C 1008 hPa NE 16.1 km/h 29 km/h 75% 0 mm
20:39 7.1 °C 2.9 °C 1008 hPa NE 12.9 km/h 29 km/h 75% 0 mm
20:44 6.9 °C 2.8 °C 1008 hPa NE 16.1 km/h 27.4 km/h 75% 0 mm
20:49 6.8 °C 2.8 °C 1008 hPa NNE 11.3 km/h 22.5 km/h 76% 0 mm
20:54 6.7 °C 2.7 °C 1008 hPa ENE 16.1 km/h 30.6 km/h 76% 0 mm
20:59 6.7 °C 2.7 °C 1008 hPa NE 11.3 km/h 22.5 km/h 76% 0 mm
21:04 6.6 °C 2.7 °C 1008 hPa NE 8 km/h 29 km/h 76% 0 mm
21:09 6.6 °C 2.7 °C 1008 hPa NE 12.9 km/h 24.1 km/h 76% 0 mm
21:14 6.7 °C 2.7 °C 1008 hPa NNE 6.4 km/h 20.9 km/h 76% 0 mm
21:19 6.7 °C 2.9 °C 1008 hPa ENE 11.3 km/h 22.5 km/h 77% 0 mm
21:24 6.8 °C 2.8 °C 1008 hPa ENE 11.3 km/h 22.5 km/h 76% 0 mm
21:29 6.8 °C 2.9 °C 1008 hPa NE 11.3 km/h 22.5 km/h 76% 0 mm
21:34 6.8 °C 2.9 °C 1008 hPa ENE 12.9 km/h 22.5 km/h 76% 0 mm
21:39 6.9 °C 2.9 °C 1008 hPa ENE 12.9 km/h 24.1 km/h 76% 0 mm
21:44 6.8 °C 2.9 °C 1008 hPa ENE 12.9 km/h 24.1 km/h 76% 0 mm
21:49 6.8 °C 2.8 °C 1007.7 hPa NE 12.9 km/h 25.7 km/h 76% 0 mm
21:54 6.8 °C 2.8 °C 1007.7 hPa NE 8 km/h 20.9 km/h 76% 0 mm
21:59 6.7 °C 2.9 °C 1007.3 hPa NE 12.9 km/h 25.7 km/h 77% 0 mm
22:04 6.7 °C 2.9 °C 1007.3 hPa East 11.3 km/h 25.7 km/h 77% 0 mm
22:09 6.8 °C 3 °C 1007.3 hPa NE 12.9 km/h 22.5 km/h 77% 0 mm
22:14 6.8 °C 3 °C 1007.3 hPa NE 8 km/h 19.3 km/h 77% 0 mm
22:19 6.8 °C 3.2 °C 1007 hPa NE 14.5 km/h 25.7 km/h 78% 0 mm
22:24 6.8 °C 3.3 °C 1007 hPa ENE 9.7 km/h 25.7 km/h 78% 0 mm
22:29 6.9 °C 3.3 °C 1006.7 hPa ENE 11.3 km/h 24.1 km/h 78% 0 mm
22:34 6.9 °C 3.4 °C 1006.7 hPa ENE 12.9 km/h 25.7 km/h 78% 0 mm
22:39 6.9 °C 3.4 °C 1006.7 hPa ENE 11.3 km/h 25.7 km/h 78% 0 mm
22:44 7 °C 3.4 °C 1006.3 hPa East 16.1 km/h 20.9 km/h 78% 0 mm
22:49 6.9 °C 3.2 °C 1006.3 hPa NE 14.5 km/h 25.7 km/h 77% 0 mm
22:54 6.9 °C 3.2 °C 1006.3 hPa ENE 12.9 km/h 27.4 km/h 77% 0 mm
22:59 6.9 °C 3.2 °C 1006.3 hPa ENE 12.9 km/h 27.4 km/h 77% 0 mm
23:04 6.9 °C 3.2 °C 1006.3 hPa East 14.5 km/h 27.4 km/h 77% 0 mm
23:09 6.9 °C 3.1 °C 1006 hPa ENE 12.9 km/h 25.7 km/h 77% 0 mm
23:14 6.8 °C 3.1 °C 1006 hPa East 17.7 km/h 22.5 km/h 77% 0 mm
23:19 6.8 °C 3.2 °C 1005.6 hPa ESE 11.3 km/h 24.1 km/h 78% 0 mm
23:24 6.7 °C 3.1 °C 1005.6 hPa East 9.7 km/h 25.7 km/h 78% 0 mm
23:29 6.6 °C 3 °C 1005.3 hPa ENE 12.9 km/h 25.7 km/h 78% 0 mm
23:34 6.4 °C 2.9 °C 1005.3 hPa ENE 12.9 km/h 25.7 km/h 78% 0 mm
23:39 6.4 °C 3 °C 1005.3 hPa ENE 12.9 km/h 25.7 km/h 79% 0 mm
23:44 6.4 °C 3 °C 1005 hPa ENE 12.9 km/h 25.7 km/h 79% 0 mm
23:49 6.3 °C 2.9 °C 1004.6 hPa ENE 6.4 km/h 24.1 km/h 79% 0 mm
23:54 6.2 °C 2.8 °C 1004.6 hPa NE 6.4 km/h 25.7 km/h 79% 0 mm
23:59 6.2 °C 2.8 °C 1004.6 hPa NE 14.5 km/h 25.7 km/h 79% 0 mm
Buffalo, New York, USA
Compliments of Weather Underground - 2.5 mb